Simultaneous Nadir Overpasses (SNOs) Predictions

Prediction of SNOs between LANDSAT-8 and METOP-A Satellite Orbit:

Table of predicted SNOs for the next 14.0 days since TLE Epoch: 7/30/2015
Index Date (LANDSAT-8) Time (LANDSAT-8) Lat,Lon (LANDSAT-8) SZA (LANDSAT-8 ) Date (METOP-A) Time (METOP-A) Lat,Lon (METOP-A) SZA (METOP-A ) Distance(km) Time Diff (sec)
1 08/01/2015 16:22:28 -81.21, 155.84 114.65 08/01/2015 16:21:34 -81.21, 155.91 114.67 1.33 54
2 08/01/2015 17:11:54 81.22, -36.41 65.38 08/01/2015 17:12:14 81.22, -36.61 65.36 3.34 20
3 08/04/2015 11:56:43 -81.22,-137.55 113.90 08/04/2015 11:55:56 -81.21,-137.69 113.94 2.58 47
4 08/04/2015 12:46:09 81.23, 30.18 66.13 08/04/2015 12:46:35 81.23, 30.14 66.14 0.60 26
5 08/07/2015 07:30:58 -81.21, -71.36 113.17 08/07/2015 07:30:17 -81.21, -71.32 113.17 0.94 41
6
